| time (UTC) | temp C | wind direction | speed KPH | gust KPH | rain 1hr cm | rain 24hr cm | rain mn cm | humidity % | barometer mb |
| 20260506080333 | 16 | 238 | 0.0 | 3.2 | 0.00 | 0.00 | 0.00 | 57 | 1014.7 |
| 20260506070325 | 16 | 284 | 0.0 | 4.8 | 0.00 | 0.00 | 0.00 | 50 | 1014.2 |
| 20260506060133 | 17 | 279 | 0.0 | 6.4 | 0.00 | 0.00 | 0.00 | 48 | 1013.8 |
| 20260506050342 | 18 | 285 | 0.0 | 8.0 | 0.00 | 0.00 | 0.00 | 47 | 1012.9 |
| 20260506040337 | 19 | 269 | 0.0 | 4.8 | 0.00 | 0.00 | 0.00 | 37 | 1011.8 |
| 20260506040010 | 19 | 269 | 0.0 | 4.8 | 0.00 | 0.00 | 0.00 | 37 | 1011.8 |
| 20260506030258 | 20 | 278 | 0.0 | 4.8 | 0.00 | 0.00 | 0.00 | 32 | 1010.6 |
| 20260506030010 | 20 | 278 | 0.0 | 4.8 | 0.00 | 0.00 | 0.00 | 32 | 1010.6 |
| 20260506020257 | 21 | 276 | 0.0 | 9.7 | 0.00 | 0.00 | 0.00 | 33 | 1009.3 |
| 20260506020009 | 21 | 276 | 0.0 | 9.7 | 0.00 | 0.00 | 0.00 | 33 | 1009.3 |
| 20260506010302 | 23 | 267 | 0.0 | 9.7 | 0.00 | 0.00 | 0.00 | 26 | 1008.0 |
| 20260506010009 | 23 | 267 | 0.0 | 9.7 | 0.00 | 0.00 | 0.00 | 26 | 1008.0 |
| 20260506000244 | 23 | 242 | 0.0 | 11.3 | 0.00 | 0.00 | 0.00 | 28 | 1007.5 |
| 20260506000009 | 23 | 242 | 0.0 | 11.3 | 0.00 | 0.00 | 0.00 | 28 | 1007.5 |
| 20260505230249 | 24 | 204 | 0.0 | 14.5 | 0.00 | 0.00 | 0.00 | 27 | 1007.5 |
| 20260505230009 | 24 | 204 | 0.0 | 14.5 | 0.00 | 0.00 | 0.00 | 27 | 1007.5 |
| 20260505220112 | 24 | 274 | 0.0 | 12.9 | 0.00 | 0.00 | 0.00 | 29 | 1008.0 |
| 20260505220010 | 24 | 274 | 0.0 | 12.9 | 0.00 | 0.00 | 0.00 | 29 | 1008.0 |
| 20260505210104 | 23 | 257 | 0.0 | 11.3 | 0.00 | 0.00 | 0.00 | 36 | 1008.6 |
| 20260505210009 | 23 | 257 | 0.0 | 11.3 | 0.00 | 0.00 | 0.00 | 36 | 1008.6 |
| 20260505200241 | 21 | 360 | 0.0 | 3.2 | 0.00 | 0.00 | 0.00 | 49 | 1009.8 |
| 20260505200009 | 21 | 360 | 0.0 | 3.2 | 0.00 | 0.00 | 0.00 | 49 | 1009.8 |
| 20260505190256 | 21 | 289 | 0.0 | 3.2 | 0.00 | 0.00 | 0.00 | 53 | 1010.7 |
| 20260505190009 | 21 | 289 | 0.0 | 3.2 | 0.00 | 0.00 | 0.00 | 53 | 1010.7 |
| 20260505180324 | 20 | 43 | 0.0 | 1.6 | 0.00 | 0.00 | 0.00 | 60 | 1011.7 |
| 20260505180009 | 20 | 43 | 0.0 | 1.6 | 0.00 | 0.00 | 0.00 | 60 | 1011.7 |
| 20260505170256 | 19 | 54 | 0.0 | 0.0 | 0.00 | 0.00 | 0.00 | 64 | 1011.9 |
| 20260505170009 | 19 | 54 | 0.0 | 0.0 | 0.00 | 0.00 | 0.00 | 64 | 1011.9 |
| 20260505160409 | 17 | 269 | 0.0 | 1.6 | 0.00 | 0.00 | 0.00 | 74 | 1012.6 |
| 20260505150257 | 16 | 0.0 | 0.0 | 0.00 | 0.00 | 0.00 | 87 | 1012.7 | |
| 20260505140323 | 15 | 38 | 0.0 | 1.6 | 0.00 | 0.00 | 0.00 | 92 | 1012.6 |
| 20260505120327 | 14 | 26 | 0.0 | 1.6 | 0.00 | 0.00 | 0.00 | 94 | 1011.8 |
| 20260505120010 | 14 | 26 | 0.0 | 1.6 | 0.00 | 0.00 | 0.00 | 94 | 1011.8 |
| 20260505110327 | 14 | 330 | 0.0 | 0.0 | 0.00 | 0.00 | 0.00 | 93 | 1012.7 |
| 20260505100252 | 14 | 24 | 0.0 | 1.6 | 0.00 | 0.00 | 0.00 | 93 | 1013.5 |
| 20260505100010 | 14 | 24 | 0.0 | 1.6 | 0.00 | 0.00 | 0.00 | 93 | 1013.5 |
| 20260505090346 | 14 | 84 | 0.0 | 4.8 | 0.08 | 0.00 | 0.00 | 93 | 1014.5 |
| 20260505090009 | 14 | 84 | 0.0 | 4.8 | 0.08 | 0.00 | 0.00 | 93 | 1014.5 |